Back to catalog

IRIDIUM 33 DEB

AlivePO
NORAD 35850·DEBRIS·🇺🇸 United States

Launched Sep 14, 1997 from Baikonur Cosmodrome

Loading…

Next Passes (next 24 hours)

TLE

FreshSource: Space-Track

Epoch: Sep 14, 2026, 04:39 UTC

1 35850U 97051TA  26257.19376052  .00007320  00000-0  86235-3 0  9997
2 35850  86.3486 218.2194 0007530 339.8194  20.2731 14.84649943754370

Track IRIDIUM 33 DEB in real time with AllMySat

Download on the App Store